Find Starlink 36106

NORAD ID: 67018 Int'l Des: 2025-293 Owner: SPXS Country: US Constellation: starlink operational
LEOCIRCULAR

現在のビュー

3D地球を読み込み中...

Starlink 36106について

説明を読み込み中...

次回通過

Passes for default location (London). Set your location on the main map for personalized predictions.

高度履歴

Loading altitude history...

軌道要素

1 67018U 25293R 26146.54958179 .00002072 00000-0 18132-3 0 9999
2 67018 70.0009 258.0137 0003289 270.2137 89.8645 14.98337109 26553
Epoch: May 26, 2026 • Age: 7 hours

現在のステータス

高度 588.3 km
速度 7.57 km/s
衛星直下点 -48.28°S, 92.73°W
打ち上げ日 Dec 10, 2025
運用期間 0.4 years
タイプ internet

技術仕様

分類 Payload
質量 575.00 kg
乾燥質量 530.00 kg
総質量 575.00 kg
長さ 0.30 m
直径 4.10 m
スパン 29.00 m
形状 Box + pan
製造者 SPXS
バスタイプ Starlink V2MO
フェーズステータス In Orbit
所有者/国 SPXS/US

Most Searched